Stations météo

réclame
Mon MeteoGroup
Thorney Island, Grande-Bretagne (3872): Température de l'air & dewpoint: 15.02.2018 01:00:00 - 21.02.2018 01:00:00 (GMT)Thorney Island, Grande-Bretagne (3872): Température de l'air -20cm & Température de l'air -100cm: 15.02.2018 01:00:00 - 21.02.2018 01:00:00 (GMT)Thorney Island, Grande-Bretagne (3872): Vitesse du vent & gusts: 15.02.2018 01:00:00 - 21.02.2018 01:00:00 (GMT)Thorney Island, Grande-Bretagne (3872): Direction du vent: 15.02.2018 01:00:00 - 21.02.2018 01:00:00 (GMT)Thorney Island, Grande-Bretagne (3872): reduced air pressure: 15.02.2018 01:00:00 - 21.02.2018 01:00:00 (GMT)Thorney Island, Grande-Bretagne (3872): visibility: 15.02.2018 01:00:00 - 21.02.2018 01:00:00 (GMT)Thorney Island, Grande-Bretagne (3872): Quantités de précipitations: 15.02.2018 01:00:00 - 21.02.2018 01:00:00 (GMT)
Date & Time tt [°C] td [°C] tt -20cm [°C] tt -100cm [°C] ff [km/h] ff [knt] fx [km/h] fx [knt] dd ppp [hPa] vv [km] rr [mm]
21.02.2018 01:00:00 4,8 2,1 - - 9 5 - - NE 1025,3 25 0,0
21.02.2018 00:00:00 6,5 2,7 - - 28 15 - - ENE 1024,5 35 0,0
20.02.2018 23:00:00 7,2 3,1 - - 28 15 48 26 NE 1024,0 45 0,0
20.02.2018 22:00:00 7,6 3,3 - - 31 17 52 28 NNE 1023,3 50 0,0
20.02.2018 21:00:00 7,9 2,7 - - 31 17 52 28 NNE 1022,4 50 0,0
20.02.2018 20:00:00 8,6 2,5 - - 26 14 48 26 N 1022,4 40 0,0
20.02.2018 19:00:00 9,2 2,2 - - 24 13 - - N 1022,2 50 0,0
20.02.2018 18:00:00 9,2 2,7 - - 15 8 - - N 1021,8 50 0,0
20.02.2018 17:00:00 9,5 2,9 - - 18 10 - - N 1021,5 45 0,0
20.02.2018 16:00:00 9,3 2,8 - - 22 12 - - N 1021,3 45 0,0
20.02.2018 15:00:00 9,4 2,9 - - 24 13 - - NNE 1021,1 35 0,0
20.02.2018 14:00:00 9,5 2,6 - - 24 13 46 25 N 1021,2 35 0,0
20.02.2018 13:00:00 9,9 3,2 - - 28 15 48 26 N 1021,0 35 0,0
20.02.2018 12:00:00 9,8 3,5 - - 24 13 54 29 N 1021,0 35 0,0
20.02.2018 11:00:00 9,3 4,5 - - 26 14 - - N 1021,0 24 0,0
20.02.2018 10:00:00 8,5 5,1 - - 24 13 - - NNW 1020,4 18 0,0
20.02.2018 09:00:00 8,7 6,4 7,4 7,2 21 11 - - NNW 1020,0 50 0,0
20.02.2018 08:00:00 9,0 6,9 - - 24 13 - - NNW 1019,4 40 0,0
20.02.2018 07:00:00 9,5 7,3 - - 16 9 - - NNW 1018,9 19 0,0
20.02.2018 06:00:00 9,5 7,2 - - 16 9 - - N 1018,3 21 0,0
20.02.2018 05:00:00 9,5 7,2 - - 11 6 - - N 1018,1 21 0,0
20.02.2018 04:00:00 9,9 7,5 - - 16 9 - - NNW 1018,0 30 0,0
20.02.2018 03:00:00 9,7 7,5 - - 15 8 - - NNW 1017,5 35 0,0
20.02.2018 02:00:00 9,4 7,3 - - 13 7 - - NNW 1017,4 35 0,0
20.02.2018 01:00:00 10,0 7,6 - - 18 10 - - NNW 1017,4 45 0,0
20.02.2018 00:00:00 10,2 7,8 - - 15 8 - - N 1017,3 35 0,0
19.02.2018 23:00:00 10,2 8,1 - - 13 7 - - NNW 1017,2 21 0,0
19.02.2018 22:00:00 10,5 8,3 - - 13 7 - - NNW 1016,8 22 0,0
19.02.2018 21:00:00 10,0 8,6 - - 9 5 - - N 1016,8 18 0,0
19.02.2018 20:00:00 10,5 9,0 - - 11 6 - - NW 1016,7 19 0,0
19.02.2018 19:00:00 11,0 9,1 - - 15 8 - - NNW 1016,8 19 0,0
19.02.2018 18:00:00 11,2 9,3 - - 16 9 - - NW 1016,7 21 0,0
19.02.2018 17:00:00 11,5 9,5 - - 13 7 - - NW 1016,4 27 0,0
19.02.2018 16:00:00 11,9 9,7 - - 15 8 - - NNW 1016,3 30 0,0
19.02.2018 15:00:00 11,4 10,0 - - 11 6 - - NW 1016,4 13 0,0
19.02.2018 14:00:00 10,8 10,1 - - 9 5 - - NW 1016,5 10 0,0
19.02.2018 13:00:00 9,8 9,7 - - 9 5 - - WNW 1017,0 7 0,0
19.02.2018 12:00:00 9,0 8,9 - - 8 4 - - WNW 1017,3 5 0,0
19.02.2018 11:00:00 8,1 8,1 - - 9 5 - - WNW 1017,6 5 0,4
19.02.2018 10:00:00 7,8 7,8 - - 11 6 - - W 1017,6 2,4 0,0
19.02.2018 09:00:00 7,3 7,3 6,7 7,2 5 3 - - WSW 1017,8 3,9 0,0
19.02.2018 08:00:00 7,0 6,9 - - 5 3 - - WSW 1017,9 2,2 0,0
19.02.2018 07:00:00 6,8 6,7 - - 5 3 - - SW 1017,9 0,6 0,2
19.02.2018 06:00:00 6,8 6,7 - - 5 3 - - WSW 1017,7 0,8 0,4
19.02.2018 05:00:00 6,7 6,6 - - 4 2 - - SW 1017,9 0,7 0,4
19.02.2018 04:00:00 6,7 6,5 - - 2 1 - - SSW 1018,1 0,3 0,0
19.02.2018 03:00:00 6,8 6,7 - - 2 1 - - NE 1018,4 0,2 0,4
19.02.2018 02:00:00 6,8 6,7 - - 2 1 - - NE 1018,9 0,3 0,0
19.02.2018 01:00:00 6,8 6,7 - - 0 0 - - N 1019,1 0,8 0,0
19.02.2018 00:00:00 6,9 6,7 - - 2 1 - - E 1019,5 1,0 0,2
18.02.2018 23:00:00 6,8 6,7 - - 2 1 - - E 1019,7 0,8 0,0
18.02.2018 22:00:00 6,9 6,8 - - 2 1 - - E 1019,9 1,1 0,0
18.02.2018 21:00:00 7,0 6,8 - - 4 2 - - ESE 1020,3 2,0 0,0
18.02.2018 20:00:00 6,8 6,7 - - 5 3 - - ESE 1020,7 0,9 0,0
18.02.2018 19:00:00 6,8 6,5 - - 5 3 - - ESE 1020,9 2,3 0,0
18.02.2018 18:00:00 6,7 6,4 - - 8 4 - - SE 1020,9 5 0,0
18.02.2018 17:00:00 6,8 6,4 - - 13 7 - - SE 1020,8 3,0 0,0
18.02.2018 16:00:00 7,4 6,1 - - 13 7 - - SSE 1020,9 12 0,0
18.02.2018 15:00:00 7,7 6,3 - - 13 7 - - SSE 1021,0 24 0,0
18.02.2018 14:00:00 7,7 6,4 - - 13 7 - - S 1021,2 11 0,0
18.02.2018 13:00:00 8,6 6,5 - - 15 8 - - S 1021,2 30 0,0
18.02.2018 12:00:00 8,1 6,5 - - 15 8 - - SSE 1021,8 24 0,0
18.02.2018 11:00:00 7,9 6,5 - - 15 8 - - S 1021,8 26 0,0
18.02.2018 10:00:00 7,7 6,8 - - 13 7 - - S 1021,9 24 0,0
18.02.2018 09:00:00 7,0 6,8 6,0 7,2 11 6 - - S 1021,9 21 0,0
18.02.2018 08:00:00 6,0 6,0 - - 11 6 - - SSE 1022,1 18 0,0
18.02.2018 07:00:00 6,1 6,0 - - 13 7 - - S 1022,2 15 0,0
18.02.2018 06:00:00 6,4 6,4 - - 11 6 - - S 1022,0 15 0,2
18.02.2018 05:00:00 5,8 5,7 - - 9 5 - - ESE 1021,8 6 1,2
18.02.2018 04:00:00 4,5 4,4 - - 5 3 - - E 1022,3 5 0,0
18.02.2018 03:00:00 4,9 4,9 - - 11 6 - - S 1022,6 10 0,0
18.02.2018 02:00:00 4,7 4,5 - - 13 7 - - S 1023,1 8 0,0
18.02.2018 01:00:00 3,1 2,8 - - 5 3 - - ESE 1023,0 7 0,0
18.02.2018 00:00:00 3,4 2,9 - - 8 4 - - SSE 1023,2 6 0,0
17.02.2018 23:00:00 4,0 2,7 - - 9 5 - - SSE 1023,3 17 0,0
17.02.2018 22:00:00 6,8 5,5 - - 11 6 - - S 1023,5 25 0,0
17.02.2018 21:00:00 6,6 4,8 - - 11 6 - - S 1023,5 30 0,0
17.02.2018 20:00:00 6,6 5,1 - - 11 6 - - S 1023,5 30 0,0
17.02.2018 19:00:00 6,0 4,8 - - 13 7 - - SSW 1023,4 21 0,0
17.02.2018 18:00:00 6,6 5,3 - - 11 6 - - S 1023,2 26 0,0
17.02.2018 17:00:00 6,8 5,5 - - 11 6 - - S 1022,8 23 0,0
17.02.2018 16:00:00 6,9 5,4 - - 13 7 - - S 1022,9 17 0,0
17.02.2018 15:00:00 8,2 4,9 - - 13 7 - - S 1022,7 23 0,0
17.02.2018 14:00:00 8,1 5,9 - - 13 7 - - S 1023,0 15 0,0
17.02.2018 13:00:00 8,0 5,4 - - 11 6 - - SSW 1023,0 13 0,0
17.02.2018 12:00:00 8,7 5,4 - - 11 6 - - SSW 1023,1 24 0,0
17.02.2018 11:00:00 8,5 4,9 - - 8 4 - - SE 1022,6 20 0,0
17.02.2018 10:00:00 6,1 4,2 - - 5 3 - - E 1022,2 17 0,0
17.02.2018 09:00:00 2,3 1,9 5,7 7,2 5 3 - - NE 1021,8 12 0,0
17.02.2018 08:00:00 0,6 0,5 - - 8 4 - - NNE 1021,6 11 0,0
17.02.2018 07:00:00 -0,3 -0,6 - - 8 4 - - ENE 1021,2 11 0,0
17.02.2018 06:00:00 1,3 1,0 - - 11 6 - - NNE 1021,0 16 0,0
17.02.2018 05:00:00 1,8 1,4 - - 9 5 - - ENE 1020,9 17 0,0
17.02.2018 04:00:00 2,2 1,4 - - 8 4 - - E 1020,6 13 0,0
17.02.2018 03:00:00 4,3 3,5 - - 9 5 - - E 1020,8 19 0,0
17.02.2018 02:00:00 4,3 3,8 - - 9 5 - - E 1021,4 14 0,0
17.02.2018 01:00:00 3,4 2,9 - - 9 5 - - ENE 1021,9 13 0,0
17.02.2018 00:00:00 3,8 3,4 - - 8 4 - - E 1022,1 13 0,0
16.02.2018 23:00:00 3,9 3,4 - - 9 5 - - E 1022,5 13 0,0
16.02.2018 22:00:00 3,0 2,5 - - 8 4 - - E 1023,2 12 0,0
16.02.2018 21:00:00 3,0 2,4 - - 8 4 - - E 1023,2 15 0,0
16.02.2018 20:00:00 3,8 2,7 - - 8 4 - - ESE 1023,3 14 0,0
16.02.2018 19:00:00 4,3 3,6 - - 11 6 - - ESE 1024,1 13 0,0
16.02.2018 18:00:00 3,8 2,7 - - 11 6 - - SE 1024,7 18 0,0
16.02.2018 17:00:00 5,8 3,5 - - 13 7 - - SSE 1024,4 21 0,0
16.02.2018 16:00:00 7,9 4,6 - - 15 8 - - SSE 1025,0 21 0,0
16.02.2018 15:00:00 7,8 4,1 - - 13 7 - - SSE 1024,9 27 0,0
16.02.2018 14:00:00 8,1 4,0 - - 13 7 - - S 1025,6 17 0,0
16.02.2018 13:00:00 9,3 3,0 - - 4 2 - - SW 1026,1 25 0,0
16.02.2018 12:00:00 8,3 3,1 - - 4 2 - - SSW 1026,9 15 0,0
16.02.2018 11:00:00 7,1 3,8 - - 4 2 - - E 1026,9 14 0,0
16.02.2018 10:00:00 5,0 3,0 - - 4 2 - - ESE 1026,6 13 0,2
16.02.2018 09:00:00 0,9 0,4 5,9 7,2 5 3 - - NE 1026,2 13 0,0
16.02.2018 08:00:00 -1,0 -1,3 - - 5 3 - - E 1025,8 10 0,0
16.02.2018 07:00:00 -1,2 -1,8 - - 5 3 - - ENE 1025,0 12 0,0
16.02.2018 06:00:00 -0,2 -1,0 - - 2 1 - - NW 1024,5 15 0,0
16.02.2018 05:00:00 0,7 -0,3 - - 8 4 - - NW 1023,9 17 0,0
16.02.2018 04:00:00 2,6 0,9 - - 9 5 - - WNW 1023,6 25 0,0
16.02.2018 03:00:00 3,6 2,0 - - 13 7 - - W 1023,2 26 0,0
16.02.2018 02:00:00 3,7 1,3 - - 8 4 - - NW 1022,6 22 0,0
16.02.2018 01:00:00 4,6 1,8 - - 16 9 - - W 1021,9 22 0,0
16.02.2018 00:00:00 5,0 2,2 - - 18 10 - - W - - 0,0
15.02.2018 23:00:00 4,7 2,1 - - 15 8 - - W 1020,8 27 0,0
15.02.2018 22:00:00 4,5 1,9 - - 15 8 - - W 1019,9 19 0,0
15.02.2018 21:00:00 4,3 1,8 - - 15 8 - - W 1019,2 19 0,0
15.02.2018 20:00:00 4,0 2,4 - - 8 4 - - WNW 1018,5 17 0,0
15.02.2018 19:00:00 4,0 2,3 - - 11 6 - - W 1017,9 17 0,0
15.02.2018 18:00:00 5,0 2,8 - - 13 7 - - W 1016,9 23 0,0
15.02.2018 17:00:00 6,5 2,7 - - 15 8 46 25 W 1016,0 45 0,0
15.02.2018 16:00:00 8,9 2,2 - - 21 11 - - W 1014,8 28 0,0
15.02.2018 15:00:00 10,0 0,4 - - 21 11 - - WNW 1014,0 40 0,0
15.02.2018 14:00:00 10,3 0,0 - - 22 12 - - WNW 1013,4 28 0,0
15.02.2018 13:00:00 9,7 3,7 - - 16 9 - - WNW 1012,9 18 0,0
15.02.2018 12:00:00 10,2 4,2 - - 21 11 - - WNW 1012,3 22 0,0
15.02.2018 11:00:00 9,2 4,0 - - 21 11 - - WNW 1011,1 30 0,0
15.02.2018 10:00:00 8,8 6,1 - - 18 10 - - WNW 1010,2 28 0,0
15.02.2018 09:00:00 8,3 6,2 5,7 7,2 21 11 - - W 1008,7 16 0,0
15.02.2018 08:00:00 7,6 6,4 - - 18 10 - - W 1007,3 12 0,0
15.02.2018 07:00:00 8,2 7,0 - - 21 11 - - W 1005,8 11 0,0
15.02.2018 06:00:00 8,9 8,1 - - 22 12 - - W 1004,9 8 0,0
15.02.2018 05:00:00 8,9 8,5 - - 16 9 - - W 1003,9 8 0,0
15.02.2018 04:00:00 8,3 8,1 - - 16 9 - - W 1003,5 7 0,0
15.02.2018 03:00:00 7,4 7,2 - - 11 6 - - SW 1003,2 8 0,0
15.02.2018 02:00:00 8,6 8,6 - - 16 9 - - W 1002,7 9 0,0
15.02.2018 01:00:00 8,7 8,6 - - 18 10 - - WSW 1002,1 1,8 0,0

tt = Température de l'air
td = dewpoint
tt -20cm = Température de l'air -20cm
tt -100cm = Température de l'air -100cm
ff = Vitesse du vent
fx = gusts
dd = Direction du vent
ppp = reduced air pressure
vv = visibility
rr = Quantités de précipitations

stations d'obs. à proximité